Location: St. Louis
(38.6270°N, 90.1994°W)
Time: 00:23:51
(UTC-05:00)

ISS - Pass Details

Date: 18 November 2017
Orbit: 402 x 406 km, 51.6° (Epoch: 22 June)

Event Time Altitude Azimuth Distance (km) Brightness Sun altitude
Exits shadow 04:39:13 30° 120° (ESE) 745 -2.0 -24.7°
Drops below altitude 10° 04:41:01 10° 125° (SE) 1,447 -0.2 -24.4°
Sets 04:43:05 0° 127° (SE) 2,302 0.9 -24.0°
